EW8925 Weather Reports


Display with metric or nautical units.
time (UTC)temp
F
wind
direction
speed
MPH
gust
MPH
rain 1hr
in
rain 24hr
in
rain mn
in
humidity
%
barometer
mb
20260906214532 91 0.0 0.0 0.00 0.00 0.00 12 1001.9
20260906213031 91 0.0 0.0 0.00 0.00 0.00 11 1002.0
20260906211529 91 0.0 0.0 0.00 0.00 0.00 11 1002.2
20260906210027 91 0.0 0.0 0.00 0.00 0.00 11 1002.8
20260906204527 92 0.0 0.0 0.00 0.00 0.00 11 1002.8
20260906203026 92 0.0 0.0 0.00 0.00 0.00 12 1002.8
20260906201525 92 0.0 0.0 0.00 0.00 0.00 12 1002.8
20260906200024 92 0.0 0.0 0.00 0.00 0.00 13 1002.6
20260906194525 92 0.0 0.0 0.00 0.00 0.00 12 1002.8
20260906193020 91 0.0 0.0 0.00 0.00 0.00 15 1003.0
20260906191517 91 0.0 0.0 0.00 0.00 0.00 14 1003.3
20260906190015 91 0.0 0.0 0.00 0.00 0.00 14 1003.6
20260906184513 90 0.0 0.0 0.00 0.00 0.00 14 1003.8
20260906183014 89 0.0 0.0 0.00 0.00 0.00 14 1004.1
20260906181505 89 0.0 0.0 0.00 0.00 0.00 15 1004.3
20260906180119 88 0.0 0.0 0.00 0.00 0.00 17 1004.5
20260906174559 86 0.0 0.0 0.00 0.00 0.00 23 1004.8
20260906173102 86 0.0 0.0 0.00 0.00 0.00 23 1005.1
20260906171551 84 0.0 0.0 0.00 0.00 0.00 26 1005.4
20260906170112 83 0.0 0.0 0.00 0.00 0.00 27 1005.7
20260906164544 81 0.0 0.0 0.00 0.00 0.00 29 1005.8
20260906163041 80 0.0 0.0 0.00 0.00 0.00 30 1005.8
20260906161537 79 0.0 0.0 0.00 0.00 0.00 31 1006.0
20260906160035 78 0.0 0.0 0.00 0.00 0.00 32 1006.0
20260906154532 77 0.0 0.0 0.00 0.00 0.00 33 1006.2
20260906153029 76 0.0 0.0 0.00 0.00 0.00 36 1006.3
20260906151524 73 0.0 0.0 0.00 0.00 0.00 41 1006.4
20260906150019 71 0.0 0.0 0.00 0.00 0.00 42 1006.6
20260906144520 70 0.0 0.0 0.00 0.00 0.00 43 1006.5
20260906143012 69 0.0 0.0 0.00 0.00 0.00 45 1006.7
20260906141509 68 0.0 0.0 0.00 0.00 0.00 47 1006.6
20260906140010 61 0.0 0.0 0.00 0.00 0.00 57 1006.5
20260906134516 57 0.0 0.0 0.00 0.00 0.00 62 1006.7
20260906133008 53 0.0 0.0 0.00 0.00 0.00 69 1006.8
20260906131508 51 0.0 0.0 0.00 0.00 0.00 70 1006.8
20260906130004 51 0.0 0.0 0.00 0.00 0.00 68 1006.7
20260906124506 52 0.0 0.0 0.00 0.00 0.00 68 1006.4
20260906123002 52 0.0 0.0 0.00 0.00 0.00 68 1006.3
20260906121601 53 0.0 0.0 0.00 0.00 0.00 65 1006.4
20260906114609 52 0.0 0.0 0.00 0.00 0.00 66 1006.4
20260906113055 53 0.0 0.0 0.00 0.00 0.00 64 1006.4
20260906111554 54 0.0 0.0 0.00 0.00 0.00 64 1006.3
20260906110051 54 0.0 0.0 0.00 0.00 0.00 62 1006.4
20260906104548 55 0.0 0.0 0.00 0.00 0.00 61 1006.4
20260906103049 55 0.0 0.0 0.00 0.00 0.00 60 1006.3
20260906101544 56 0.0 0.0 0.00 0.00 0.00 59 1006.3
20260906100039 58 0.0 0.0 0.00 0.00 0.00 57 1006.0
20260906094535 59 0.0 0.0 0.00 0.00 0.00 54 1006.0
20260906093033 60 0.0 0.0 0.00 0.00 0.00 53 1005.9
20260906091533 61 0.0 0.0 0.00 0.00 0.00 52 1005.8
20260906090026 62 0.0 0.0 0.00 0.00 0.00 50 1005.9
20260906084521 64 0.0 0.0 0.00 0.00 0.00 48 1005.8
20260906083020 65 0.0 0.0 0.00 0.00 0.00 47 1005.8
20260906081515 65 0.0 0.0 0.00 0.00 0.00 46 1005.8
20260906080024 66 0.0 0.0 0.00 0.00 0.00 45 1005.8
20260906074512 66 0.0 0.0 0.00 0.00 0.00 44 1005.8
20260906073009 67 0.0 0.0 0.00 0.00 0.00 43 1005.9
20260906071508 67 0.0 0.0 0.00 0.00 0.00 43 1005.9
20260906070008 67 0.0 0.0 0.00 0.00 0.00 42 1005.9
20260906064507 67 0.0 0.0 0.00 0.00 0.00 42 1005.9
20260906063005 67 0.0 0.0 0.00 0.00 0.00 41 1005.7
20260906061503 68 0.0 0.0 0.00 0.00 0.00 40 1005.9
20260906060001 68 0.0 0.0 0.00 0.00 0.00 40 1006.0
20260906054500 68 0.0 0.0 0.00 0.00 0.00 39 1005.9
20260906053109 69 0.0 0.0 0.00 0.00 0.00 38 1005.7
20260906051602 70 0.0 0.0 0.00 0.00 0.00 38 1006.1
20260906050059 70 0.0 0.0 0.00 0.00 0.00 37 1006.0
20260906044559 70 0.0 0.0 0.00 0.00 0.00 37 1005.8
20260906043102 71 0.0 0.0 0.00 0.00 0.00 36 1005.9
20260906041601 72 0.0 0.0 0.00 0.00 0.00 35 1005.7
20260906040057 72 0.0 0.0 0.00 0.00 0.00 34 1005.6
20260906034557 74 0.0 0.0 0.00 0.00 0.00 31 1005.8
20260906033109 76 0.0 0.0 0.00 0.00 0.00 29 1005.7
20260906031556 76 0.0 0.0 0.00 0.00 0.00 28 1005.6
20260906030056 77 0.0 0.0 0.00 0.00 0.00 28 1005.5
20260906024557 78 0.0 0.0 0.00 0.00 0.00 27 1005.3
20260906023056 78 0.0 0.0 0.00 0.00 0.00 27 1005.0
20260906021558 78 0.0 0.0 0.00 0.00 0.00 27 1004.8
20260906020105 79 0.0 0.0 0.00 0.00 0.00 26 1004.6
20260906014555 80 0.0 0.0 0.00 0.00 0.00 25 1004.5
20260906013103 82 0.0 0.0 0.00 0.00 0.00 24 1004.4
20260906011602 83 0.0 0.0 0.00 0.00 0.00 23 1004.4
20260906010052 85 0.0 0.0 0.00 0.00 0.00 22 1004.2
20260906004601 86 0.0 0.0 0.00 0.00 0.00 21 1004.1
20260906003053 87 0.0 0.0 0.00 0.00 0.00 20 1004.0
20260906001551 88 0.0 0.0 0.00 0.00 0.00 20 1003.8
20260906000055 88 0.0 0.0 0.00 0.00 0.00 20 1003.7
20260905234549 89 0.0 0.0 0.00 0.00 0.00 19 1003.7
20260905233047 88 0.0 0.0 0.00 0.00 0.00 20 1003.7
20260905231546 88 0.0 0.0 0.00 0.00 0.00 20 1003.6
20260905230045 88 0.0 0.0 0.00 0.00 0.00 19 1003.7
20260905224550 89 0.0 0.0 0.00 0.00 0.00 19 1003.8
20260905223044 89 0.0 0.0 0.00 0.00 0.00 18 1003.9
20260905221543 90 0.0 0.0 0.00 0.00 0.00 18 1003.9
20260905220042 89 0.0 0.0 0.00 0.00 0.00 18 1004.2